Torna al catalogo

THOR ABLESTAR DEB

AttivoLEO
NORAD 263·DEBRIS·🇺🇸 United States

Lanciato Jun 29, 1961 da Cape Canaveral Space Force Station

Loading…

Prossimi Passaggi (prossime 24 ore)

TLE

AggiornatoSource: Space-Track

Epoca: Sep 10, 2026, 23:58 UTC

1 00263U 61015CK  26253.99897029  .00000534  00000-0  16200-3 0  9999
2 00263  66.5271 255.5808 0101582 214.1799 175.3905 14.47390481395719

Traccia THOR ABLESTAR DEB in tempo reale con AllMySat

Download on the App Store